Flag for Russia Weather past 2 weeks in Voronezh, Russia

Now
52 °F

Overcast.


Feels Like: 47 °F
Forecast: 28 / 49 °F
Wind: 13 mph from West

Location: Voronez

Current Time: Oct 21, 2014 at 8:17:09 PM

Latest Report: Oct 21, 2014 at 7:30 PM


Visibility: N/A

Pressure: 29.45 "Hg

Humidity: 82%

Dew point: 46 °F

Location of VoronezhLocation

Historic Weather in Voronezh — Graph

°F

Voronezh temperature yesterday

Maximum temperature yesterday: 50 °F (at 11:00 PM)
Minimum temperature yesterday: 32 °F (at 12:00 AM)
Average temperature yesterday: 42 °F

Past Weeks' High & Low Weather Summary

 TemperatureHumidityPressure
High72 °F (Oct 13, 3:30 PM)100% (Oct 15, 8:30 AM)30.72 "Hg (Oct 15, 8:30 AM)
Low23 °F (Oct 8, 4:30 AM)19% (Oct 13, 3:30 PM)29.42 "Hg (Oct 21, 12:30 PM)
Average47 °F65%30.06 "Hg
* Reported Oct 6 7:00 PM — Oct 21 7:00 PM, Voronezh, Weather by CustomWeather, © 2014

Note: Actual official high and low records may vary slightly from our data, if they occured in-between our weather recording intervals... More about our weather records

Advertising

Voronezh weather history for previous 24 hours

 ConditionsComfort  
Time TempWeatherWind HumidityBarometerVisibility
7:00 PM
Oct 21
50 °FOvercast.13 mph94%29.45 "Hg5 mi
6:30 PM50 °FOvercast.13 mph94%29.45 "Hg5 mi
6:00 PM52 °FOvercast.13 mph82%29.45 "HgN/A
5:30 PM52 °FOvercast.15 mph82%29.45 "Hg6 mi
5:00 PM54 °FOvercast.15 mph72%29.45 "HgN/A
4:30 PM54 °FSunny.13 mph72%29.45 "Hg10 mi
4:00 PM54 °FPartly sunny.17 mph77%29.45 "HgN/A
3:30 PM54 °FPartly sunny.15 mph77%29.45 "HgN/A
3:00 PM52 °FPartly sunny.13 mph77%29.42 "HgN/A
2:30 PM55 °FPartly sunny.15 mph72%29.42 "HgN/A
2:00 PM55 °FBroken clouds.15 mph72%29.42 "HgN/A
1:30 PM54 °FBroken clouds.13 mph77%29.42 "HgN/A
1:00 PM54 °FPartly sunny.13 mph88%29.42 "HgN/A
12:30 PM52 °FLight rain. Low clouds.10 mph94%29.42 "Hg2 mi
12:00 PM54 °FLight rain. Overcast.10 mph82%29.45 "Hg5 mi
11:30 AM54 °FOvercast.8 mph82%29.45 "HgN/A
11:00 AM54 °FOvercast.6 mph82%29.45 "HgN/A
10:30 AM54 °FOvercast.8 mph82%29.45 "HgN/A
10:00 AM54 °FOvercast.8 mph82%29.45 "HgN/A
9:30 AM52 °FLow clouds.6 mph88%29.45 "HgN/A
9:00 AM52 °FOvercast.10 mph88%29.45 "HgN/A
8:30 AM52 °FPassing clouds.10 mph88%29.45 "HgN/A
8:00 AM52 °FOvercast.8 mph88%29.47 "Hg6 mi
7:30 AM52 °FOvercast.8 mph88%29.47 "Hg5 mi
7:00 AM52 °FLow clouds.6 mph88%29.47 "Hg5 mi
6:30 AM52 °FLight rain. Overcast.8 mph88%29.47 "Hg4 mi
6:00 AM52 °FLow clouds.6 mph88%29.47 "Hg4 mi
5:30 AM52 °FOvercast.6 mph88%29.47 "Hg4 mi
5:00 AM52 °FLow clouds.6 mph88%29.47 "Hg4 mi
4:30 AM52 °FLow clouds.10 mph88%29.47 "Hg4 mi
4:00 AM52 °FLow clouds.8 mph88%29.47 "Hg4 mi
3:30 AM52 °FLow clouds.8 mph88%29.47 "Hg4 mi
3:00 AM50 °FOvercast.8 mph94%29.50 "Hg4 mi
2:30 AM50 °FOvercast.8 mph94%29.50 "Hg4 mi
2:00 AM50 °FLow clouds.8 mph94%29.50 "Hg4 mi
1:30 AM50 °FFog.8 mph94%29.50 "Hg3 mi
1:00 AM50 °FFog.8 mph88%29.50 "Hg3 mi
12:30 AM50 °FLow clouds.10 mph88%29.50 "Hg4 mi
12:00 AM50 °FLow clouds.10 mph88%29.50 "Hg5 mi
11:30 PM
Oct 20
50 °FLow clouds.10 mph88%29.50 "Hg4 mi
11:00 PM50 °FLow clouds.10 mph88%29.50 "Hg5 mi
10:30 PM48 °FLow clouds.13 mph94%29.50 "Hg6 mi
10:00 PM48 °FLow clouds.13 mph94%29.50 "Hg6 mi
9:30 PM48 °FLow clouds.15 mph94%29.50 "Hg5 mi
9:00 PM48 °FLow clouds.15 mph94%29.50 "Hg5 mi
8:30 PM48 °FLow clouds.13 mph87%29.50 "Hg6 mi
8:00 PM48 °FLow clouds.13 mph87%29.50 "Hg4 mi
Weather by CustomWeather, © 2014

See weather overviewHow to use our weather pages